When you browse on this site, cookies collect data to enhance your experience and personalize the content and advertising you see.
Visit our Privacy Policy to learn more. By continuing to use the site, you agree to this use of cookies and data.
  • In Österreich
  • Länderverzeichnis
  • Für 7 Tage
  • Wassertemperatur
  • Wetterkarte
  • News
  • Widgets
  • user-avatar
    Anmelden

    Stündliche Wetter Rødovrea

    Heute, 18 August, Sonntag

    Zeit Temperatur Niederschläge Wind Luftdruck Luftfeuchtigkeit
    00:00 +17°C° 0.2 mm 3 m/S 753 mmHg 92%
    01:00 +17°C° 0 mm 2 m/S 753 mmHg 95%
    02:00 +17°C° 2.1 mm 2 m/S 752 mmHg 95%
    03:00 +17°C° 2.1 mm 2 m/S 752 mmHg 95%
    04:00 +17°C° 2.1 mm 2 m/S 752 mmHg 96%
    05:00 +18°C° 0.1 mm 1 m/S 752 mmHg 94%
    06:00 +18°C° 0.1 mm 1 m/S 752 mmHg 92%
    07:00 +18°C° 0 mm 2 m/S 752 mmHg 90%
    08:00 +18°C° 0 mm 2 m/S 752 mmHg 84%
    09:00 +20°C° 0 mm 1 m/S 752 mmHg 78%
    10:00 +21°C° 0 mm 1 m/S 752 mmHg 73%
    11:00 +20°C° 0.1 mm 1 m/S 752 mmHg 75%
    12:00 +19°C° 0.1 mm 2 m/S 752 mmHg 78%
    13:00 +19°C° 0.1 mm 2 m/S 752 mmHg 81%
    14:00 +18°C° 0.5 mm 2 m/S 751 mmHg 84%
    15:00 +19°C° 0.5 mm 1 m/S 751 mmHg 86%
    16:00 +18°C° 0.5 mm 1 m/S 751 mmHg 89%
    17:00 +17°C° 1.7 mm 2 m/S 751 mmHg 90%
    18:00 +16°C° 1.7 mm 3 m/S 751 mmHg 91%
    19:00 +16°C° 1.7 mm 3 m/S 751 mmHg 92%
    20:00 +15°C° 0 mm 4 m/S 751 mmHg 91%
    21:00 +14°C° 0 mm 4 m/S 752 mmHg 91%
    22:00 +14°C° 0 mm 4 m/S 752 mmHg 91%
    23:00 +14°C° 0 mm 5 m/S 752 mmHg 90%

    Morgen, 19 August, Montag

    Zeit Temperatur Niederschläge Wind Luftdruck Luftfeuchtigkeit
    00:00 +14°C° 0 mm 5 m/S 753 mmHg 90%
    01:00 +14°C° 0 mm 5 m/S 753 mmHg 89%
    02:00 +14°C° 0 mm 5 m/S 753 mmHg 90%
    03:00 +14°C° 0 mm 4 m/S 754 mmHg 90%
    04:00 +14°C° 0 mm 4 m/S 754 mmHg 90%
    05:00 +14°C° 0 mm 4 m/S 754 mmHg 88%
    06:00 +15°C° 0 mm 5 m/S 754 mmHg 86%
    07:00 +16°C° 0 mm 5 m/S 755 mmHg 83%
    08:00 +16°C° 0.3 mm 6 m/S 755 mmHg 80%
    09:00 +17°C° 0.3 mm 6 m/S 755 mmHg 77%
    10:00 +18°C° 0.3 mm 7 m/S 755 mmHg 73%
    11:00 +18°C° 0.2 mm 7 m/S 756 mmHg 70%
    12:00 +20°C° 0.2 mm 7 m/S 756 mmHg 67%
    13:00 +21°C° 0.2 mm 7 m/S 756 mmHg 64%
    14:00 +21°C° 0.3 mm 7 m/S 757 mmHg 64%
    15:00 +20°C° 0.3 mm 7 m/S 757 mmHg 65%
    16:00 +20°C° 0.3 mm 7 m/S 757 mmHg 66%
    17:00 +18°C° 0 mm 7 m/S 758 mmHg 68%
    18:00 +19°C° 0 mm 6 m/S 758 mmHg 71%
    19:00 +17°C° 0 mm 6 m/S 758 mmHg 74%
    20:00 +16°C° 0 mm 6 m/S 758 mmHg 76%
    21:00 +16°C° 0 mm 6 m/S 759 mmHg 79%
    22:00 +15°C° 0 mm 6 m/S 759 mmHg 82%
    23:00 +15°C° 0 mm 5 m/S 760 mmHg 83%

    übermorgen, 20 August, Dienstag

    Zeit Temperatur Niederschläge Wind Luftdruck Luftfeuchtigkeit
    00:00 +14°C° 0 mm 5 m/S 760 mmHg 84%
    01:00 +14°C° 0 mm 5 m/S 760 mmHg 85%
    02:00 +14°C° 0 mm 4 m/S 761 mmHg 86%
    03:00 +13°C° 0 mm 4 m/S 761 mmHg 86%
    04:00 +13°C° 0 mm 4 m/S 761 mmHg 87%
    05:00 +14°C° 0 mm 4 m/S 761 mmHg 85%
    06:00 +14°C° 0 mm 3 m/S 761 mmHg 83%
    07:00 +16°C° 0 mm 3 m/S 762 mmHg 82%
    08:00 +17°C° 0.2 mm 4 m/S 762 mmHg 78%
    09:00 +17°C° 0.2 mm 5 m/S 762 mmHg 74%
    10:00 +19°C° 0.2 mm 5 m/S 762 mmHg 70%
    11:00 +20°C° 0.2 mm 6 m/S 762 mmHg 67%
    12:00 +20°C° 0.2 mm 6 m/S 762 mmHg 65%
    13:00 +21°C° 0.2 mm 6 m/S 762 mmHg 63%
    14:00 +21°C° 0.2 mm 6 m/S 762 mmHg 62%
    15:00 +21°C° 0.2 mm 6 m/S 762 mmHg 61%
    16:00 +21°C° 0.2 mm 6 m/S 762 mmHg 61%
    17:00 +20°C° 0.1 mm 5 m/S 762 mmHg 65%
    18:00 +19°C° 0.1 mm 4 m/S 762 mmHg 69%
    19:00 +18°C° 0.1 mm 4 m/S 763 mmHg 73%
    20:00 +17°C° 0 mm 4 m/S 763 mmHg 74%
    21:00 +17°C° 0 mm 4 m/S 764 mmHg 76%
    22:00 +15°C° 0 mm 4 m/S 764 mmHg 77%
    23:00 +14°C° 0 mm 4 m/S 764 mmHg 79%

    21 August, Mittwoch

    Zeit Temperatur Niederschläge Wind Luftdruck Luftfeuchtigkeit
    00:00 +14°C° 0 mm 4 m/S 764 mmHg 82%
    01:00 +14°C° 0 mm 4 m/S 764 mmHg 84%
    02:00 +13°C° 0 mm 4 m/S 764 mmHg 85%
    03:00 +13°C° 0 mm 4 m/S 765 mmHg 87%
    04:00 +13°C° 0 mm 4 m/S 765 mmHg 88%
    05:00 +13°C° 0 mm 4 m/S 765 mmHg 86%
    06:00 +14°C° 0 mm 4 m/S 765 mmHg 84%
    07:00 +15°C° 0 mm 4 m/S 765 mmHg 81%
    08:00 +15°C° 0 mm 4 m/S 766 mmHg 77%
    09:00 +17°C° 0 mm 4 m/S 766 mmHg 72%
    10:00 +18°C° 0 mm 4 m/S 766 mmHg 67%
    11:00 +18°C° 0 mm 4 m/S 766 mmHg 64%
    12:00 +19°C° 0 mm 5 m/S 767 mmHg 61%
    13:00 +19°C° 0 mm 5 m/S 767 mmHg 57%
    14:00 +19°C° 0 mm 5 m/S 767 mmHg 57%
    15:00 +19°C° 0 mm 5 m/S 767 mmHg 57%
    16:00 +19°C° 0 mm 4 m/S 767 mmHg 57%
    17:00 +18°C° 0 mm 4 m/S 767 mmHg 61%
    18:00 +18°C° 0 mm 3 m/S 767 mmHg 65%
    19:00 +17°C° 0 mm 3 m/S 767 mmHg 69%
    20:00 +17°C° 0 mm 3 m/S 767 mmHg 71%
    21:00 +16°C° 0 mm 2 m/S 768 mmHg 72%
    22:00 +16°C° 0 mm 2 m/S 768 mmHg 74%
    23:00 +15°C° 0 mm 2 m/S 768 mmHg 75%

    22 August, Donnerstag

    Zeit Temperatur Niederschläge Wind Luftdruck Luftfeuchtigkeit
    00:00 +15°C° 0 mm 2 m/S 768 mmHg 77%
    01:00 +15°C° 0 mm 2 m/S 768 mmHg 79%
    02:00 +15°C° 0 mm 2 m/S 768 mmHg 81%
    03:00 +14°C° 0 mm 2 m/S 768 mmHg 83%
    04:00 +14°C° 0 mm 2 m/S 768 mmHg 85%
    05:00 +14°C° 0 mm 2 m/S 768 mmHg 84%
    06:00 +15°C° 0 mm 2 m/S 768 mmHg 82%
    07:00 +15°C° 0 mm 2 m/S 768 mmHg 81%
    08:00 +17°C° 0 mm 3 m/S 768 mmHg 74%
    09:00 +18°C° 0 mm 3 m/S 768 mmHg 67%
    10:00 +19°C° 0 mm 3 m/S 768 mmHg 60%
    11:00 +20°C° 0.2 mm 3 m/S 768 mmHg 60%
    12:00 +20°C° 0.2 mm 4 m/S 767 mmHg 61%
    13:00 +20°C° 0.2 mm 4 m/S 767 mmHg 61%
    14:00 +20°C° 0.6 mm 4 m/S 767 mmHg 61%
    15:00 +20°C° 0.6 mm 4 m/S 767 mmHg 61%
    16:00 +21°C° 0.6 mm 4 m/S 767 mmHg 60%
    17:00 +20°C° 0.1 mm 3 m/S 767 mmHg 64%
    18:00 +19°C° 0.1 mm 3 m/S 767 mmHg 68%
    19:00 +18°C° 0.1 mm 3 m/S 767 mmHg 72%
    20:00 +18°C° 0 mm 3 m/S 767 mmHg 74%
    21:00 +17°C° 0 mm 2 m/S 767 mmHg 76%
    22:00 +16°C° 0 mm 2 m/S 768 mmHg 78%
    23:00 +16°C° 0 mm 2 m/S 768 mmHg 79%

    23 August, Freitag

    Zeit Temperatur Niederschläge Wind Luftdruck Luftfeuchtigkeit
    00:00 +16°C° 0 mm 2 m/S 768 mmHg 81%
    01:00 +15°C° 0 mm 2 m/S 768 mmHg 82%
    02:00 +15°C° 0 mm 2 m/S 768 mmHg 83%
    03:00 +15°C° 0 mm 2 m/S 768 mmHg 84%
    04:00 +15°C° 0 mm 1 m/S 767 mmHg 85%
    05:00 +15°C° 0 mm 1 m/S 768 mmHg 83%
    06:00 +16°C° 0 mm 1 m/S 768 mmHg 80%
    07:00 +18°C° 0 mm 1 m/S 768 mmHg 77%
    08:00 +19°C° 0 mm 1 m/S 768 mmHg 72%
    09:00 +19°C° 0 mm 2 m/S 768 mmHg 67%
    10:00 +20°C° 0 mm 2 m/S 768 mmHg 62%
    11:00 +21°C° 0 mm 2 m/S 768 mmHg 59%
    12:00 +21°C° 0 mm 2 m/S 768 mmHg 56%
    13:00 +22°C° 0 mm 3 m/S 768 mmHg 53%
    14:00 +22°C° 0 mm 3 m/S 768 mmHg 54%
    15:00 +22°C° 0 mm 3 m/S 768 mmHg 55%
    16:00 +22°C° 0 mm 3 m/S 768 mmHg 56%
    17:00 +21°C° 0 mm 3 m/S 768 mmHg 60%
    18:00 +20°C° 0 mm 2 m/S 768 mmHg 65%
    19:00 +19°C° 0 mm 2 m/S 767 mmHg 70%
    20:00 +18°C° 0 mm 2 m/S 768 mmHg 71%
    21:00 +18°C° 0 mm 2 m/S 768 mmHg 73%
    22:00 +17°C° 0 mm 3 m/S 768 mmHg 74%
    23:00 +17°C° 0 mm 3 m/S 768 mmHg 75%
    Mehr zeigen